TimeEDT,TemperatureF,Dew PointF,Humidity,Sea Level PressureIn,VisibilityMPH,Wind Direction,Wind SpeedMPH,Gust SpeedMPH,PrecipitationIn,Events,Conditions,WindDirDegrees,DateUTC
12:40 AM,71.6,69.8,94,30.00,10.0,SE,3.5,-,N/A,,Mostly Cloudy,130,2013-03-23 04:40:00
12:53 AM,72.0,70.0,93,29.99,10.0,SE,5.8,-,N/A,,Mostly Cloudy,140,2013-03-23 04:53:00
1:13 AM,71.6,69.8,94,29.98,10.0,South,6.9,-,N/A,,Partly Cloudy,170,2013-03-23 05:13:00
1:53 AM,72.0,70.0,93,29.99,10.0,SSE,4.6,-,N/A,,Clear,160,2013-03-23 05:53:00
2:25 AM,71.6,69.8,94,29.98,10.0,SSE,4.6,-,N/A,,Mostly Cloudy,150,2013-03-23 06:25:00
2:53 AM,71.6,71.6,100,29.97,10.0,South,6.9,-,N/A,,Mostly Cloudy,180,2013-03-23 06:53:00
3:12 AM,73.4,71.6,94,29.96,10.0,South,9.2,-,N/A,,Scattered Clouds,190,2013-03-23 07:12:00
3:53 AM,73.0,71.1,93,29.95,10.0,South,8.1,-,N/A,,Scattered Clouds,190,2013-03-23 07:53:00
4:53 AM,73.0,71.1,93,29.94,10.0,South,9.2,-,N/A,,Mostly Cloudy,190,2013-03-23 08:53:00
5:53 AM,73.0,71.1,93,29.94,10.0,South,5.8,-,N/A,,Mostly Cloudy,180,2013-03-23 09:53:00
6:53 AM,72.0,70.0,93,29.95,10.0,SSE,4.6,-,N/A,,Clear,160,2013-03-23 10:53:00
7:53 AM,72.0,71.1,97,29.96,10.0,SSE,4.6,-,N/A,,Clear,150,2013-03-23 11:53:00
8:44 AM,75.2,73.4,94,29.97,10.0,South,8.1,-,N/A,,Partly Cloudy,180,2013-03-23 12:44:00
8:53 AM,75.9,73.0,91,29.98,10.0,South,10.4,-,N/A,,Scattered Clouds,180,2013-03-23 12:53:00
9:02 AM,77.0,73.4,89,29.98,10.0,South,11.5,-,N/A,,Mostly Cloudy,190,2013-03-23 13:02:00
9:53 AM,79.0,72.0,79,29.98,10.0,South,12.7,-,N/A,,Mostly Cloudy,190,2013-03-23 13:53:00
9:59 AM,80.6,71.6,74,29.98,10.0,South,11.5,-,N/A,,Mostly Cloudy,190,2013-03-23 13:59:00
10:12 AM,80.6,71.6,74,29.97,10.0,South,10.4,-,N/A,,Scattered Clouds,190,2013-03-23 14:12:00
10:53 AM,82.9,70.0,65,29.98,10.0,South,9.2,-,N/A,,Scattered Clouds,170,2013-03-23 14:53:00
11:53 AM,84.0,70.0,63,29.96,10.0,South,8.1,-,N/A,,Partly Cloudy,170,2013-03-23 15:53:00
12:53 PM,86.0,70.0,59,29.94,10.0,SSE,18.4,23.0,N/A,,Partly Cloudy,160,2013-03-23 16:53:00
1:53 PM,87.1,68.0,53,29.91,10.0,SSE,18.4,23.0,N/A,,Clear,160,2013-03-23 17:53:00
2:53 PM,86.0,66.9,53,29.89,10.0,SSE,15.0,-,N/A,,Clear,150,2013-03-23 18:53:00
3:53 PM,87.1,66.9,51,29.87,10.0,South,17.3,21.9,N/A,,Clear,170,2013-03-23 19:53:00
4:53 PM,84.9,69.1,59,29.85,10.0,South,16.1,23.0,N/A,,Clear,170,2013-03-23 20:53:00
5:53 PM,84.0,69.1,61,29.84,10.0,South,11.5,19.6,N/A,,Clear,170,2013-03-23 21:53:00
6:53 PM,82.0,69.1,65,29.84,10.0,SSE,12.7,-,N/A,,Clear,160,2013-03-23 22:53:00
7:53 PM,78.1,70.0,76,29.86,10.0,SE,9.2,-,N/A,,Clear,140,2013-03-23 23:53:00
8:53 PM,77.0,71.1,82,29.88,10.0,South,6.9,-,N/A,,Clear,170,2013-03-24 00:53:00
9:53 PM,75.9,71.1,85,29.90,10.0,South,4.6,-,N/A,,Clear,180,2013-03-24 01:53:00
10:53 PM,75.0,71.1,87,29.91,10.0,South,6.9,-,N/A,,Clear,170,2013-03-24 02:53:00
11:53 PM,73.9,71.1,91,29.91,10.0,SSE,3.5,-,N/A,,Clear,150,2013-03-24 03:53:00